Temperature
23 23 23 23 22 22 22 23 23 23 23 24 25 24 23 22 21 20 20 19 19 19 19 18 18 18 18 18 17 17 17 17 16 16 16 16 16 15 15 15 15 15 15 15
22 22 22 22 23 23 22 23 23 23 23 25 24 23 22 22 21 20 20 19 19 19 19 18 18 18 18 18 17 17 17 17 16 16 16 16 15 15 15 15 15 15 15 14
22 22 22 22 23 23 23 23 23 23 24 24 24 23 23 22 21 20 20 19 19 19 19 19 19 18 18 18 17 17 17 17 16 16 16 15 15 15 15 15 15 15 14 14
22 22 21 23 24 23 23 23 24 24 24 24 23 22 22 21 21 21 20 20 19 19 19 19 19 18 18 18 17 17 17 17 16 16 16 15 15 15 15 15 15 14 14 14
21 21 22 23 23 23 23 23 24 24 24 23 22 22 22 21 20 20 20 20 20 20 19 19 19 18 18 18 17 17 17 17 16 16 16 15 15 15 15 15 14 14 14 14
20 20 21 23 23 23 23 23 24 23 23 23 23 24 24 21 20 20 20 20 20 20 19 19 19 18 18 18 17 17 17 17 16 16 16 16 15 15 15 15 14 14 14 14
20 20 22 23 22 22 22 23 23 23 23 22 23 23 22 21 20 20 20 20 20 20 19 19 19 18 18 18 17 17 17 17 16 16 16 15 15 15 15 14 14 14 14 14
20 20 21 22 22 23 23 23 22 22 22 22 21 21 20 20 20 20 20 20 20 19 19 19 19 19 18 18 18 17 17 17 16 16 16 15 15 15 15 14 14 14 14 14
21 22 22 21 21 21 21 21 21 21 21 20 20 20 20 20 20 20 20 20 20 19 19 19 19 18 18 18 18 18 17 17 17 16 16 15 15 15 15 14 14 14 14 13
21 21 20 20 20 20 20 20 20 20 20 20 20 20 19 19 19 19 19 19 19 19 19 18 18 18 18 18 18 17 17 17 16 16 16 15 15 15 14 14 14 14 13 13
20 21 20 19 19 19 19 19 19 19 19 19 19 19 19 19 19 19 19 19 19 19 19 19 18 18 18 18 18 17 17 17 16 16 16 15 15 15 14 14 14 14 13 13
20 20 21 20 19 18 18 18 19 19 19 19 19 19 19 19 19 19 19 19 18 18 18 18 18 18 18 18 18 17 17 16 16 16 15 15 15 14 14 14 14 13 13 13
19 18 18 18 18 18 18 18 18 18 18 18 18 18 18 18 18 18 18 18 18 18 18 18 18 18 18 18 17 17 17 16 16 16 15 15 14 14 14 14 13 13 13 13
17 17 17 17 17 17 17 17 17 18 18 18 18 18 18 18 18 18 18 18 18 18 18 17 17 17 18 17 17 17 16 16 16 16 15 15 14 14 13 13 13 13 12 12
16 16 16 16 16 16 16 17 17 17 17 17 18 18 17 18 18 18 18 18 17 17 17 17 17 17 17 17 17 16 16 16 15 15 15 14 14 14 13 12 12 12 12 12
15 15 15 16 16 16 16 16 16 16 17 17 17 17 17 17 17 17 17 17 17 17 17 17 17 17 16 16 16 16 16 15 15 15 14 14 13 13 13 12 12 11 11 11
14 15 15 15 15 15 15 15 16 16 16 16 16 16 16 16 16 17 17 17 17 17 17 17 17 16 16 16 15 15 15 15 15 14 14 13 13 13 12 12 12 11 11 11
14 14 15 15 15 15 15 15 15 15 16 16 16 16 16 16 16 16 17 16 16 16 16 16 16 16 16 15 15 15 14 14 14 13 13 13 12 12 12 11 11 11 10 10
13 13 14 14 14 14 15 15 15 15 15 15 16 16 16 15 16 16 16 16 16 16 16 16 16 16 15 15 15 14 14 14 13 13 13 12 12 11 11 11 11 10 10 10
12 13 13 13 13 13 14 14 14 14 15 15 15 15 15 15 15 15 15 15 15 16 16 15 15 15 15 14 14 14 13 13 13 12 12 12 11 11 11 10 10 10 10 9
12 12 12 12 13 13 13 14 14 14 14 14 14 14 14 14 14 14 14 15 15 15 15 15 14 14 14 14 14 13 13 13 12 12 12 11 11 11 10 10 10 10 9 9
11 11 12 12 12 12 13 13 13 13 13 13 13 13 13 13 13 13 14 14 14 14 14 14 14 14 13 13 13 13 12 12 12 12 11 11 11 10 10 10 9 9 9 8
11 11 11 11 11 11 12 12 12 12 12 12 12 13 13 13 13 13 13 13 13 13 13 13 13 13 13 13 12 12 12 11 11 11 11 11 10 10 10 9 9 8 8 8
10 10 10 10 10 11 11 11 11 11 11 12 12 12 12 12 12 12 12 12 13 13 13 13 12 12 12 12 11 11 11 11 11 11 10 10 10 9 9 9 8 8 7 7
10 10 10 10 10 10 11 11 11 11 11 11 11 11 11 11 12 12 12 12 12 12 12 12 12 11 11 11 11 11 10 10 10 10 10 9 9 9 8 8 8 7 7 6
9 9 9 9 10 10 10 10 10 10 10 10 10 10 10 11 11 11 11 11 11 11 11 11 10 10 10 10 10 10 10 10 9 9 9 9 8 8 8 7 7 7 6 6
8 8 9 9 9 9 9 9 9 10 10 10 10 10 10 10 10 10 10 10 10 10 10 10 10 9 9 9 9 9 9 9 8 8 8 8 8 7 7 7 6 6 6 5
Wind_Speed
7 6 6 8 9 11 11 9 8 7 8 7 5 3 2 3 4 6 8 9 11 11 11 12 12 12 12 12 12 12 12 12 11 10 9 8 7 7 6 5 5 4 3 3
8 7 8 10 10 12 12 12 11 10 9 7 5 4 4 4 5 6 8 10 11 11 12 13 13 13 12 13 13 13 12 12 10 10 9 9 8 8 7 6 5 5 4 4
8 7 8 11 11 12 11 11 10 10 8 4 5 5 5 5 5 7 8 9 11 12 12 12 12 13 13 13 12 13 12 11 11 11 10 10 9 8 8 7 6 6 5 4
7 7 11 5 3 8 9 10 10 10 9 7 6 5 5 5 5 6 7 8 10 10 11 11 12 12 12 12 12 12 12 12 11 11 11 10 9 9 9 8 7 6 5 5
7 10 10 7 6 7 9 9 8 9 9 6 4 4 4 3 4 5 6 7 8 10 11 11 12 12 12 12 12 12 12 12 12 12 11 11 10 10 8 7 7 6 5 5
8 10 10 6 4 5 7 8 5 6 6 5 5 6 3 2 2 3 3 5 7 8 10 11 12 12 12 12 12 12 12 12 11 11 11 11 10 10 8 7 7 6 5 5
12 11 9 4 4 6 8 4 2 4 4 5 6 4 1 2 2 2 3 4 6 8 9 10 12 12 12 12 12 11 11 11 11 11 11 10 9 9 8 7 7 6 6 5
12 12 10 4 6 8 3 1 1 3 3 4 4 3 3 3 2 3 3 4 6 7 8 9 11 12 12 11 10 10 10 11 10 10 10 9 9 8 8 8 7 7 6 5
9 8 2 4 6 4 3 4 3 2 3 4 4 3 3 3 2 3 4 4 5 7 7 8 11 11 12 11 10 11 11 11 10 10 9 9 9 9 8 7 7 6 6 5
9 8 6 5 5 5 4 5 4 3 3 3 3 3 3 3 3 3 4 4 5 7 7 8 9 10 10 10 11 11 11 11 10 10 9 9 7 7 7 7 7 7 6 6
12 9 6 7 6 5 4 4 3 3 3 3 3 3 3 3 3 3 4 4 5 6 7 8 9 9 9 10 11 12 11 10 10 9 9 8 7 5 6 6 6 6 6 5
11 9 8 8 6 5 5 5 4 3 3 3 3 4 4 3 3 4 4 5 6 6 7 8 9 9 9 10 11 12 11 10 9 8 8 7 7 5 3 2 3 3 2 3
10 8 8 8 7 6 6 5 5 4 4 4 3 3 4 3 3 4 5 6 6 6 7 8 9 9 9 10 11 11 11 10 8 8 8 8 7 7 6 4 4 4 4 4
8 7 8 8 7 6 5 5 4 4 4 3 3 3 3 3 3 4 5 6 6 6 6 7 8 8 9 10 10 10 10 9 9 8 8 8 7 7 6 6 5 3 4 5
8 8 7 6 5 5 5 4 4 4 4 3 3 4 4 5 5 4 4 5 6 6 6 7 7 8 8 10 10 10 9 8 8 7 7 7 7 7 6 7 5 5 4 4
6 6 6 6 6 5 5 5 5 5 4 4 4 5 5 5 5 4 4 5 6 7 7 7 7 7 8 10 10 8 8 8 8 8 7 7 7 7 7 7 6 5 5 4
8 8 8 8 7 6 6 6 6 6 5 5 5 5 5 5 5 5 5 5 6 6 6 7 7 7 9 10 10 8 8 8 9 8 7 7 7 7 7 7 6 6 5 5
7 8 8 9 7 7 7 6 6 6 6 5 4 5 5 6 7 6 6 6 6 6 5 6 6 7 8 9 9 7 7 8 8 8 7 7 7 7 7 6 7 6 5 5
4 4 5 5 6 6 6 6 6 6 5 5 5 6 6 6 6 6 6 6 7 6 5 5 6 7 8 8 8 7 8 8 8 7 7 7 7 7 6 6 6 6 5 5
3 3 3 3 4 4 5 5 5 5 5 5 6 6 6 5 5 6 6 6 5 5 5 6 7 7 7 8 7 7 8 8 8 8 7 7 7 7 6 6 6 6 5 5
3 3 3 3 3 4 4 4 4 4 4 5 6 6 6 5 5 5 6 5 4 4 5 6 6 6 6 7 8 7 7 7 7 7 7 7 7 7 7 6 6 6 5 5
3 3 3 3 3 4 3 3 3 4 4 4 5 5 5 5 5 5 5 4 4 5 5 5 5 6 7 7 7 7 7 7 7 6 6 7 7 7 6 6 6 5 5 5
3 3 3 3 3 3 3 2 2 3 3 4 5 5 6 5 5 4 4 3 4 6 5 5 6 8 8 6 6 7 7 7 7 6 6 6 6 6 6 6 6 5 5 5
3 3 3 3 2 2 2 2 2 2 3 3 3 4 4 4 3 3 2 4 5 6 4 6 9 9 7 5 6 6 6 6 6 6 6 6 6 6 5 5 5 5 5 6
3 3 2 2 2 2 2 2 1 1 2 1 2 2 3 3 3 3 3 4 6 6 5 7 9 9 6 5 5 5 5 5 6 5 5 5 5 5 5 5 5 5 5 5
3 3 3 3 3 2 2 2 2 2 2 2 1 2 2 2 3 3 4 5 6 5 5 5 6 6 5 5 5 5 5 5 5 5 5 5 6 6 5 5 6 5 5 5
3 3 2 2 2 2 2 2 3 3 3 3 2 2 2 3 3 4 5 5 5 4 4 4 5 5 5 5 5 5 4 4 4 4 5 5 5 5 5 6 5 4 4 4
Wind_Direction
249 252 236 235 229 219 226 241 256 265 272 278 274 269 244 214 192 184 184 187 187 187 187 188 190 192 192 192 190 186 186 189 192 191 188 188 184 182 178 176 179 175 171 173
236 235 239 245 239 229 233 241 248 259 271 273 271 257 237 225 208 199 198 197 194 193 191 192 192 192 190 191 189 187 189 191 190 190 187 188 187 184 180 180 184 183 185 184
240 228 238 245 238 230 230 232 238 251 263 269 262 251 245 237 223 214 207 202 200 199 197 196 194 191 190 191 187 189 192 190 187 188 189 191 188 184 185 187 189 191 196 195
244 234 242 254 224 229 236 241 240 252 262 258 261 260 250 240 230 220 208 202 202 200 196 194 191 188 186 185 186 190 191 189 187 187 189 191 190 189 194 196 192 197 201 202
234 242 252 251 225 219 231 249 243 245 252 252 245 227 217 212 230 228 217 207 201 199 194 189 185 183 182 183 186 190 191 190 188 188 188 189 191 193 195 194 194 197 200 201
229 239 246 241 200 214 233 246 230 233 237 233 219 229 215 175 208 218 211 203 195 189 187 185 182 179 180 183 186 191 192 192 189 187 187 190 192 190 187 189 194 196 198 204
230 240 249 244 183 189 225 239 179 218 225 219 225 251 214 181 191 194 188 186 184 179 181 183 177 177 182 185 191 190 185 184 183 183 185 187 188 187 186 188 190 197 199 203
222 234 240 192 187 214 259 339 237 231 229 227 238 246 218 195 178 169 166 170 176 176 178 177 174 177 183 188 188 178 173 175 178 180 180 182 182 185 188 187 190 197 204 206
220 230 243 195 217 246 279 268 262 262 253 235 238 234 220 210 188 169 167 169 174 174 174 174 176 181 185 183 176 170 170 173 176 177 178 180 182 183 185 189 196 202 205 209
229 235 234 231 242 247 259 264 266 266 257 238 235 230 218 205 187 174 167 170 172 172 175 177 179 184 185 176 172 171 172 173 173 175 177 179 181 186 189 192 198 202 206 209
230 234 232 235 242 249 262 264 268 272 254 245 240 237 227 216 199 188 173 174 178 180 182 182 178 180 180 176 173 174 174 172 173 173 171 174 175 181 191 196 201 203 204 206
234 231 236 241 244 248 249 258 265 266 273 269 246 236 233 224 214 202 187 180 181 183 185 183 179 178 177 176 176 175 173 173 172 171 171 172 170 162 102 149 133 163 187 210
248 249 249 250 250 249 251 257 264 263 262 267 258 235 227 221 211 205 191 183 185 186 186 182 177 178 177 175 178 180 177 174 172 174 175 176 176 176 169 142 124 146 163 166
250 250 251 248 253 256 257 262 268 263 262 256 242 228 219 211 202 201 200 191 187 184 183 179 177 179 176 174 176 180 178 172 172 175 177 180 182 183 182 178 174 166 158 162
247 248 249 249 249 252 253 253 255 260 261 256 234 215 209 208 210 210 200 186 184 183 181 181 180 178 175 174 175 177 175 174 175 173 175 178 179 180 182 184 184 176 164 153
248 249 241 231 236 244 247 247 251 256 256 253 243 230 219 213 207 201 188 181 184 189 187 186 183 177 174 175 174 175 173 165 169 171 172 175 177 180 182 183 184 185 185 173
238 238 233 233 237 244 251 253 254 253 249 245 245 234 218 205 199 198 192 189 189 189 188 185 179 172 176 179 177 176 172 168 168 173 177 179 181 185 185 185 186 186 187 172
234 236 235 233 234 241 251 255 252 251 248 246 233 218 211 205 204 201 192 182 180 185 186 181 171 171 178 181 180 178 175 174 179 181 180 182 184 187 187 187 185 183 177 169
232 233 238 241 241 242 246 252 251 249 245 232 217 217 219 216 206 196 186 184 186 191 192 179 163 173 177 178 173 176 175 175 176 179 179 175 180 185 185 184 182 181 176 174
246 250 251 255 251 248 248 250 252 249 238 222 216 216 216 212 199 190 189 195 202 199 183 172 171 177 177 174 171 178 177 178 178 178 179 181 183 185 185 183 182 181 182 182
253 261 267 267 270 268 263 255 245 239 230 216 212 210 208 202 195 191 188 195 202 180 172 164 173 174 175 170 174 182 181 180 180 181 181 183 183 184 184 183 182 183 184 183
269 277 278 275 278 284 284 267 243 227 216 208 206 202 194 191 191 196 202 204 187 166 171 178 179 167 166 166 178 181 181 181 182 181 183 184 183 183 183 181 181 181 182 183
285 279 271 267 268 276 277 259 232 208 201 202 202 199 196 193 190 187 200 198 180 168 174 179 165 155 160 172 177 179 179 180 181 181 182 183 183 182 181 180 180 179 179 181
289 284 277 272 266 259 253 254 242 219 206 207 208 205 195 186 190 203 203 162 160 160 172 159 152 156 165 175 174 175 176 177 178 177 176 177 177 178 179 178 177 177 178 178
291 281 270 256 252 254 247 232 213 202 192 201 212 210 204 202 193 176 170 169 160 158 162 159 156 160 170 174 172 173 174 172 170 169 172 172 173 175 175 176 177 177 175 177
291 278 267 256 259 251 229 204 200 199 195 197 211 208 193 180 164 156 157 160 156 153 156 158 161 164 171 169 169 168 166 163 162 166 170 172 171 171 172 173 175 176 174 174
286 281 274 275 281 251 224 215 212 211 208 202 200 196 181 168 160 158 154 153 152 152 151 154 159 164 165 164 165 165 163 164 165 167 167 170 171 171 171 170 169 169 169 172
Height
1506 1507 1509 1510 1511 1513 1513 1511 1513 1510 1509 1504 1503 1506 1508 1510 1512 1513 1515 1517 1519 1522 1525 1528 1531 1534 1537 1541 1544 1546 1549 1552 1554 1557 1559 1561 1563 1564 1565 1566 1567 1568 1568 1569
1508 1507 1507 1509 1507 1508 1509 1508 1507 1507 1505 1501 1503 1505 1507 1508 1510 1511 1512 1514 1517 1519 1522 1525 1528 1531 1534 1537 1540 1543 1546 1549 1552 1554 1557 1558 1560 1562 1564 1565 1566 1567 1567 1568
1508 1506 1508 1509 1501 1502 1503 1502 1503 1504 1501 1500 1502 1503 1504 1506 1507 1508 1510 1511 1514 1516 1518 1521 1524 1527 1531 1534 1537 1540 1543 1546 1549 1551 1554 1556 1558 1560 1561 1563 1564 1565 1566 1566
1507 1509 1517 1499 1494 1497 1499 1498 1498 1498 1498 1500 1501 1502 1503 1504 1504 1506 1507 1508 1510 1513 1515 1518 1522 1525 1528 1531 1534 1537 1540 1543 1545 1548 1551 1553 1555 1557 1559 1560 1562 1563 1564 1564
1507 1508 1503 1496 1493 1495 1497 1496 1494 1496 1496 1498 1500 1500 1500 1501 1502 1503 1505 1506 1507 1510 1513 1516 1519 1522 1525 1528 1531 1534 1537 1539 1542 1545 1547 1550 1552 1554 1556 1558 1559 1560 1561 1562
1506 1509 1508 1494 1490 1493 1495 1495 1492 1493 1494 1496 1497 1496 1497 1499 1500 1501 1502 1503 1505 1507 1510 1513 1516 1519 1522 1525 1528 1531 1533 1536 1539 1541 1544 1546 1548 1551 1553 1555 1556 1558 1559 1560
1502 1503 1494 1487 1490 1493 1499 1492 1490 1491 1493 1494 1495 1494 1497 1497 1498 1499 1500 1501 1503 1505 1507 1510 1513 1516 1519 1522 1525 1528 1531 1533 1536 1538 1541 1543 1546 1548 1550 1552 1554 1555 1556 1557
1497 1501 1496 1487 1489 1489 1488 1488 1489 1490 1492 1493 1494 1494 1495 1496 1497 1497 1498 1500 1501 1503 1505 1507 1510 1513 1516 1519 1522 1525 1528 1530 1533 1536 1538 1541 1543 1545 1548 1549 1551 1552 1553 1554
1486 1487 1485 1486 1487 1488 1488 1488 1489 1490 1491 1492 1492 1493 1493 1494 1495 1496 1497 1498 1499 1501 1503 1505 1507 1510 1513 1516 1519 1522 1525 1528 1530 1533 1536 1538 1540 1542 1544 1546 1548 1549 1550 1551
1482 1481 1484 1485 1485 1486 1487 1488 1488 1489 1489 1490 1490 1490 1491 1492 1493 1494 1495 1496 1498 1499 1501 1503 1505 1508 1511 1514 1517 1519 1522 1525 1528 1530 1533 1535 1537 1539 1541 1543 1544 1545 1547 1548
1479 1480 1482 1483 1483 1484 1485 1486 1486 1487 1487 1487 1488 1488 1489 1490 1491 1492 1493 1494 1496 1497 1499 1501 1503 1505 1508 1511 1514 1517 1520 1522 1525 1527 1530 1532 1534 1535 1537 1539 1540 1542 1543 1544
1475 1476 1478 1479 1481 1482 1483 1483 1484 1484 1484 1485 1485 1486 1487 1488 1489 1490 1491 1492 1493 1495 1496 1498 1501 1503 1506 1508 1511 1514 1517 1519 1521 1524 1526 1528 1530 1532 1534 1535 1537 1538 1539 1540
1474 1475 1476 1477 1478 1479 1480 1480 1481 1481 1482 1482 1483 1483 1484 1485 1486 1487 1488 1489 1490 1492 1494 1496 1498 1500 1503 1506 1508 1511 1514 1516 1518 1520 1523 1525 1527 1528 1530 1532 1533 1535 1536 1537
1471 1472 1473 1473 1475 1476 1477 1478 1478 1478 1479 1479 1480 1481 1482 1483 1484 1485 1485 1486 1488 1489 1491 1493 1495 1497 1500 1503 1505 1508 1511 1513 1515 1517 1519 1521 1523 1525 1527 1528 1530 1531 1532 1533
1468 1469 1470 1470 1472 1473 1474 1474 1475 1475 1476 1476 1477 1478 1478 1479 1481 1482 1483 1484 1485 1487 1489 1491 1492 1494 1497 1499 1502 1505 1507 1509 1511 1513 1516 1518 1520 1521 1523 1525 1527 1528 1529 1530
1464 1465 1466 1467 1468 1469 1470 1471 1471 1472 1472 1473 1473 1474 1475 1476 1478 1479 1480 1481 1483 1484 1486 1488 1490 1492 1494 1496 1499 1501 1504 1506 1508 1510 1512 1514 1516 1518 1519 1521 1523 1524 1525 1526
1460 1461 1462 1463 1464 1465 1466 1467 1467 1468 1468 1469 1470 1470 1472 1473 1474 1476 1477 1479 1480 1482 1484 1485 1487 1489 1491 1493 1496 1498 1500 1502 1505 1507 1509 1511 1512 1514 1515 1517 1518 1520 1521 1522
1456 1457 1458 1459 1460 1461 1462 1463 1464 1464 1464 1465 1466 1467 1468 1469 1470 1472 1474 1475 1477 1479 1481 1482 1484 1486 1488 1490 1492 1495 1497 1498 1501 1503 1505 1507 1508 1510 1512 1513 1514 1516 1517 1518
1451 1452 1454 1455 1456 1457 1457 1458 1459 1460 1460 1461 1462 1463 1464 1465 1467 1468 1470 1472 1473 1475 1477 1479 1480 1483 1485 1487 1489 1491 1493 1495 1497 1499 1501 1503 1505 1506 1508 1509 1510 1512 1513 1514
1448 1449 1450 1451 1452 1453 1453 1453 1454 1455 1456 1457 1458 1459 1460 1461 1463 1465 1466 1468 1469 1471 1473 1475 1477 1479 1481 1483 1485 1488 1490 1491 1493 1495 1497 1498 1500 1502 1504 1505 1506 1508 1509 1510
1445 1446 1446 1447 1448 1449 1449 1449 1450 1451 1452 1453 1454 1455 1456 1458 1459 1461 1462 1464 1466 1467 1469 1471 1473 1475 1477 1479 1482 1484 1486 1488 1489 1491 1493 1494 1496 1498 1499 1501 1502 1503 1505 1505
1442 1442 1443 1444 1444 1445 1445 1446 1446 1447 1448 1449 1450 1452 1453 1454 1455 1457 1458 1460 1462 1464 1466 1468 1470 1471 1473 1475 1477 1479 1482 1483 1485 1487 1489 1490 1492 1493 1495 1496 1498 1499 1500 1501
1439 1439 1440 1440 1441 1441 1442 1442 1443 1443 1444 1445 1446 1448 1449 1450 1452 1453 1454 1457 1458 1460 1462 1464 1466 1468 1470 1472 1473 1475 1477 1479 1481 1483 1484 1486 1487 1489 1490 1492 1493 1495 1496 1497
1436 1436 1436 1437 1437 1438 1438 1439 1440 1440 1441 1442 1443 1445 1446 1447 1448 1450 1451 1453 1454 1456 1458 1459 1461 1464 1466 1468 1469 1471 1473 1475 1476 1478 1480 1482 1483 1485 1486 1487 1489 1490 1491 1492
1432 1432 1433 1433 1434 1434 1434 1435 1436 1437 1438 1439 1440 1442 1443 1445 1445 1447 1448 1450 1451 1453 1454 1456 1458 1460 1462 1464 1465 1467 1469 1471 1472 1474 1476 1478 1479 1480 1482 1483 1484 1485 1486 1487
1429 1429 1429 1430 1430 1431 1431 1432 1432 1433 1435 1436 1437 1438 1440 1441 1443 1444 1446 1447 1448 1450 1451 1453 1454 1456 1458 1460 1462 1463 1465 1467 1468 1470 1472 1473 1475 1476 1477 1478 1479 1481 1482 1483
1426 1426 1426 1427 1427 1427 1428 1429 1430 1430 1432 1433 1434 1435 1437 1438 1440 1441 1443 1444 1445 1446 1448 1449 1451 1453 1455 1456 1458 1460 1461 1463 1464 1466 1467 1469 1470 1471 1473 1474 1475 1477 1478 1479